Regional Weather Roundup
Issued by NWS

Home | Current Version | Previous Version | Text Only | Print | Product List | Glossary Off
Versions: 1 2 3 4 5 6 7 8 9 10 11 12 13 14 15 16 17 18 19 20 21 22 23 24 25 26 27 28 29 30 31 32 33 34 35 36 37 38 39 40 41 42 43 44 45 46 47 48 49 50

000
ASUS43 KOAX 241010
RWRNE

WEATHER ROUNDUP FOR NEBRASKA
NATIONAL WEATHER SERVICE OMAHA NE
500 AM CDT SUN MAY 24 2015

NOTES: SATELLITE DATA IS BEING USED TO AUGMENT CLOUD COVER ABOVE
       12000 FEET.
       "FAIR" INDICATES FEW OR NO CLOUDS BELOW 12,000 FEET WITH NO
       SIGNIFICANT WEATHER AND/OR OBSTRUCTIONS TO VISIBILITY.

  * THESE STATIONS DO NOT REPORT WEATHER SUCH AS RAIN...SNOW OR FOG.

NEZ001>004-019>022-054>056-241100-
NEBRASKA PANHANDLE

CITY           SKY/WX    TMP DP  RH WIND       PRES   REMARKS
SCOTTSBLUFF    CLOUDY    52  51  97 CALM      29.90F
ALLIANCE       RAIN      50  50 100 SE6       29.90F FOG
CHADRON        CLOUDY    53  51  93 E7        29.91F
KIMBALL          N/A    N/A N/A N/A MISG        N/A
SIDNEY         CLOUDY    50  49  96 CALM      29.90F
$$

NEZ057>060-069>072-079>082-241100-
SOUTHWEST NEBRASKA

CITY           SKY/WX    TMP DP  RH WIND       PRES   REMARKS
NORTH PLATTE   CLOUDY    56  54  93 SE6       29.90F
IMPERIAL       CLOUDY    55  53  93 S13       29.89F
LEXINGTON      CLOUDY    59  58  97 SE3       29.90S FOG
MCCOOK         CLOUDY    57  55  93 SE3       29.89F
OGALLALA       CLOUDY    55  54  99 S6        29.89F
$$

NEZ005>010-023>029-035>040-094-241100-
NORTH CENTRAL NEBRASKA

CITY           SKY/WX    TMP DP  RH WIND       PRES   REMARKS
VALENTINE      CLOUDY    54  53  97 E9        29.94F FOG
AINSWORTH      FOG       55  55 100 E7        29.94S VSB 1/4
BROKEN BOW     CLOUDY    58  57  97 E6        29.90S FOG
O`NEILL        FOG       57  57  99 NE7       29.93F VSB 1/4
ORD            CLOUDY    57  56  96 SE3       29.91R FOG
THEDFORD       CLOUDY    56  55  98 E6        29.93R FOG
$$

NEZ041-046>049-061>064-073>077-083>087-241100-
SOUTH CENTRAL NEBRASKA

CITY           SKY/WX    TMP DP  RH WIND       PRES   REMARKS
GRAND ISLAND   LGT RAIN  59  58  96 E6        29.91R FOG
AURORA         CLOUDY    59  59 100 E6        29.90R FOG
HASTINGS       CLOUDY    59  58  96 E5        29.90R FOG
HEBRON         CLOUDY    60  58  94 CALM      29.88R FOG
HOLDREGE       RAIN      57  56  95 SE5       29.89F VSB 3/4
KEARNEY *      CLOUDY    57  55  94 E8        29.89F VSB 1
YORK           CLOUDY    59  59 100 E9        29.89R
$$

NEZ011>018-030>034-042>045-241100-
NORTHEAST NEBRASKA

CITY           SKY/WX    TMP DP  RH WIND       PRES   REMARKS
NORFOLK        LGT RAIN N/A N/A N/A E12       29.90F
ALBION         CLOUDY    58  56  93 E8        29.89F FOG
BLAIR          CLOUDY    58  57  94 NE15      29.90F FOG
COLUMBUS *     CLOUDY    57  54  88 E14       29.92F
FREMONT        CLOUDY    60  59  94 E9        29.90F
TEKAMAH        CLOUDY    61  59  93 E9        29.91F
WAYNE          CLOUDY    60  59  97 E13       29.93F FOG
$$

NEZ050>053-065>068-078-088>093-241100-
SOUTHEAST NEBRASKA

CITY           SKY/WX    TMP DP  RH WIND       PRES   REMARKS
LINCOLN        LGT RAIN  60  59  96 E8        29.88F FOG
OMAHA EPPLEY   CLOUDY    61  59  93 E12       29.90F
BEATRICE       CLOUDY    60  59  97 E7        29.87R FOG
FALLS CITY     CLOUDY    62  60  93 SE9       29.86F
NEBRASKA CITY  CLOUDY    60  60 100 E7        29.88F FOG
PLATTSMOUTH    CLOUDY    59  58  94 E10       29.89F FOG
$$

NEZ044-045-051>053-067-241100-
OMAHA AREA

CITY           SKY/WX    TMP DP  RH WIND       PRES   REMARKS
OMAHA EPPLEY   CLOUDY    61  59  93 E12       29.90F
BLAIR          CLOUDY    58  57  94 NE15      29.90F FOG
FREMONT        CLOUDY    60  59  94 E9        29.90F
MILLARD        CLOUDY    61  59  94 E5        29.89F
OFFUTT AFB     CLOUDY    61  59  94 NE8       29.88F
PLATTSMOUTH    CLOUDY    59  58  94 E10       29.89F FOG
WAHOO          RAIN      60  58  94 E14       29.88F
$$



USA.gov is the U.S. government's official web portal to all federal, state and local government web resources and services.